Precipitable_Water
0.86 0.87 0.91 0.94 0.87 0.81 0.74 0.75 0.72 0.73 0.76 0.80 0.78 0.73 0.79 0.86 0.88 0.90 0.89 0.86 0.80 0.76 0.83 1.07 1.13 1.08 0.98 0.71 0.59 0.76 0.76 0.77 0.68 0.55 0.46 0.42 0.37 0.34 0.25 0.25 0.26 0.23 0.26 0.28 0.29 0.28 0.25
0.76 0.74 0.69 0.72 0.75 0.70 0.66 0.62 0.66 0.68 0.69 0.69 0.72 0.68 0.75 0.82 0.86 0.85 0.86 0.83 0.79 0.73 0.75 0.96 1.11 1.13 0.75 0.54 0.81 0.84 0.76 0.73 0.61 0.54 0.46 0.42 0.35 0.36 0.28 0.25 0.24 0.28 0.28 0.26 0.27 0.25 0.25
0.75 0.64 0.60 0.63 0.63 0.64 0.61 0.66 0.69 0.68 0.68 0.69 0.65 0.65 0.73 0.78 0.78 0.80 0.78 0.75 0.74 0.73 0.73 0.89 1.08 1.01 0.77 0.70 0.92 0.88 0.82 0.69 0.62 0.53 0.42 0.45 0.43 0.33 0.34 0.27 0.35 0.31 0.23 0.24 0.22 0.21 0.21
0.76 0.59 0.61 0.65 0.63 0.62 0.67 0.68 0.67 0.66 0.67 0.69 0.70 0.69 0.68 0.72 0.71 0.71 0.67 0.69 0.69 0.71 0.75 0.93 1.03 0.92 0.64 0.96 1.07 0.91 0.79 0.69 0.65 0.58 0.51 0.50 0.48 0.41 0.37 0.38 0.32 0.25 0.24 0.16 0.20 0.25 0.26
0.70 0.58 0.61 0.62 0.65 0.66 0.68 0.70 0.68 0.68 0.68 0.68 0.68 0.73 0.71 0.72 0.71 0.67 0.57 0.71 0.75 0.69 0.79 1.01 0.92 0.78 0.63 0.95 0.82 0.82 0.73 0.59 0.57 0.55 0.53 0.53 0.48 0.39 0.38 0.27 0.21 0.23 0.15 0.17 0.19 0.28 0.29
0.60 0.61 0.65 0.66 0.72 0.74 0.74 0.75 0.76 0.76 0.70 0.68 0.64 0.67 0.73 0.70 0.69 0.66 0.56 0.85 0.92 0.88 0.89 0.94 0.85 0.64 0.68 0.61 0.68 0.74 0.70 0.60 0.48 0.47 0.47 0.45 0.40 0.31 0.28 0.23 0.13 0.15 0.17 0.19 0.20 0.27 0.31
0.57 0.67 0.71 0.77 0.77 0.76 0.77 0.80 0.81 0.78 0.77 0.72 0.66 0.68 0.66 0.66 0.66 0.63 0.61 0.73 0.66 0.62 0.70 0.63 0.62 0.59 0.64 0.70 0.71 0.64 0.61 0.54 0.51 0.45 0.31 0.37 0.25 0.19 0.23 0.27 0.27 0.25 0.24 0.24 0.29 0.36 0.32
0.62 0.71 0.75 0.81 0.77 0.76 0.76 0.77 0.77 0.77 0.76 0.75 0.69 0.65 0.64 0.62 0.61 0.65 0.65 0.56 0.63 0.71 0.53 0.70 0.69 0.66 0.68 0.71 0.58 0.58 0.56 0.44 0.42 0.30 0.33 0.28 0.21 0.29 0.32 0.31 0.30 0.30 0.28 0.27 0.34 0.41 0.38
0.67 0.74 0.76 0.81 0.76 0.74 0.75 0.79 0.82 0.79 0.80 0.75 0.69 0.63 0.62 0.58 0.62 0.62 0.58 0.59 0.82 0.82 0.51 0.56 0.62 0.61 0.57 0.53 0.45 0.44 0.52 0.46 0.35 0.30 0.29 0.24 0.27 0.34 0.32 0.32 0.30 0.31 0.29 0.31 0.30 0.36 0.38
0.71 0.73 0.79 0.80 0.73 0.72 0.71 0.76 0.77 0.77 0.79 0.75 0.67 0.60 0.60 0.55 0.55 0.60 0.53 0.71 0.83 0.83 0.38 0.41 0.50 0.53 0.57 0.59 0.47 0.59 0.56 0.46 0.39 0.31 0.34 0.31 0.36 0.33 0.33 0.30 0.34 0.28 0.39 0.39 0.37 0.35 0.24
0.69 0.76 0.82 0.78 0.71 0.64 0.66 0.70 0.73 0.74 0.76 0.71 0.60 0.59 0.56 0.56 0.54 0.50 0.60 0.79 0.82 0.68 0.20 0.44 0.50 0.63 0.56 0.53 0.50 0.49 0.59 0.48 0.36 0.38 0.36 0.29 0.33 0.33 0.31 0.34 0.41 0.36 0.45 0.43 0.44 0.39 0.34
0.66 0.76 0.81 0.77 0.68 0.61 0.64 0.68 0.68 0.68 0.66 0.65 0.62 0.56 0.53 0.52 0.57 0.57 0.73 0.77 0.72 0.31 0.20 0.37 0.48 0.44 0.46 0.51 0.48 0.49 0.49 0.54 0.52 0.38 0.38 0.37 0.46 0.43 0.41 0.45 0.46 0.48 0.45 0.45 0.46 0.40 0.26
0.65 0.75 0.80 0.76 0.67 0.56 0.63 0.65 0.67 0.65 0.64 0.60 0.56 0.58 0.56 0.60 0.47 0.69 0.72 0.63 0.29 0.21 0.40 0.35 0.39 0.43 0.43 0.38 0.37 0.39 0.37 0.35 0.32 0.27 0.28 0.35 0.39 0.47 0.49 0.41 0.50 0.49 0.40 0.27 0.25 0.26 0.23
0.65 0.75 0.78 0.75 0.67 0.56 0.62 0.63 0.67 0.65 0.61 0.58 0.61 0.61 0.60 0.64 0.68 0.68 0.59 0.35 0.19 0.31 0.34 0.45 0.41 0.41 0.32 0.35 0.36 0.37 0.36 0.31 0.41 0.40 0.33 0.28 0.26 0.42 0.52 0.47 0.44 0.46 0.43 0.30 0.21 0.24 0.27
0.64 0.73 0.77 0.75 0.70 0.60 0.57 0.59 0.59 0.60 0.56 0.57 0.55 0.51 0.53 0.60 0.66 0.64 0.41 0.26 0.28 0.34 0.39 0.34 0.37 0.29 0.30 0.37 0.34 0.36 0.35 0.37 0.43 0.45 0.34 0.31 0.32 0.50 0.54 0.58 0.56 0.47 0.40 0.50 0.36 0.37 0.31
0.63 0.71 0.77 0.74 0.71 0.65 0.60 0.55 0.54 0.55 0.56 0.55 0.44 0.45 0.48 0.64 0.66 0.52 0.34 0.27 0.34 0.42 0.42 0.39 0.25 0.29 0.24 0.29 0.29 0.33 0.36 0.44 0.45 0.54 0.54 0.43 0.33 0.46 0.51 0.59 0.60 0.53 0.57 0.37 0.39 0.26 0.24
0.62 0.70 0.74 0.75 0.72 0.68 0.60 0.64 0.59 0.58 0.56 0.56 0.48 0.40 0.55 0.68 0.65 0.45 0.28 0.34 0.40 0.47 0.44 0.36 0.31 0.27 0.28 0.30 0.35 0.36 0.37 0.45 0.53 0.53 0.56 0.50 0.43 0.37 0.47 0.42 0.41 0.44 0.42 0.44 0.43 0.39 0.29
0.60 0.67 0.70 0.75 0.70 0.68 0.64 0.62 0.63 0.61 0.58 0.53 0.46 0.34 0.60 0.69 0.41 0.45 0.38 0.43 0.50 0.45 0.47 0.41 0.38 0.35 0.36 0.40 0.39 0.41 0.39 0.45 0.57 0.56 0.45 0.51 0.41 0.30 0.33 0.44 0.47 0.42 0.36 0.39 0.31 0.29 0.35
0.56 0.65 0.69 0.72 0.72 0.64 0.63 0.61 0.61 0.63 0.61 0.53 0.40 0.43 0.60 0.59 0.31 0.34 0.41 0.40 0.41 0.38 0.39 0.39 0.39 0.45 0.48 0.43 0.37 0.42 0.43 0.51 0.54 0.50 0.44 0.46 0.37 0.28 0.29 0.32 0.36 0.32 0.35 0.36 0.37 0.36 0.30
0.52 0.63 0.67 0.70 0.69 0.61 0.58 0.60 0.58 0.60 0.67 0.57 0.42 0.32 0.42 0.47 0.46 0.37 0.34 0.34 0.34 0.45 0.43 0.47 0.46 0.48 0.44 0.41 0.43 0.38 0.39 0.44 0.48 0.46 0.48 0.45 0.34 0.28 0.20 0.25 0.30 0.24 0.27 0.32 0.29 0.23 0.23
0.50 0.61 0.67 0.66 0.64 0.59 0.53 0.55 0.57 0.58 0.62 0.55 0.43 0.36 0.43 0.32 0.36 0.39 0.39 0.38 0.35 0.37 0.47 0.49 0.43 0.42 0.39 0.33 0.35 0.34 0.37 0.36 0.40 0.41 0.40 0.34 0.23 0.26 0.26 0.27 0.26 0.23 0.23 0.26 0.23 0.24 0.19
0.50 0.59 0.65 0.61 0.62 0.59 0.54 0.51 0.54 0.56 0.58 0.47 0.38 0.39 0.44 0.39 0.41 0.37 0.38 0.36 0.36 0.39 0.40 0.37 0.36 0.38 0.37 0.31 0.32 0.28 0.30 0.29 0.26 0.32 0.31 0.33 0.21 0.25 0.20 0.24 0.24 0.20 0.22 0.24 0.24 0.24 0.24
0.48 0.57 0.63 0.62 0.60 0.59 0.53 0.49 0.51 0.55 0.53 0.44 0.51 0.53 0.42 0.35 0.34 0.31 0.32 0.33 0.33 0.37 0.39 0.40 0.36 0.33 0.29 0.31 0.36 0.37 0.36 0.33 0.30 0.27 0.26 0.25 0.22 0.19 0.13 0.21 0.21 0.14 0.17 0.20 0.22 0.25 0.23
0.43 0.54 0.64 0.62 0.57 0.58 0.56 0.50 0.49 0.51 0.55 0.50 0.50 0.47 0.34 0.26 0.30 0.30 0.33 0.33 0.30 0.33 0.31 0.35 0.36 0.31 0.35 0.43 0.40 0.37 0.34 0.32 0.31 0.28 0.29 0.22 0.21 0.19 0.14 0.15 0.08 0.14 0.23 0.24 0.21 0.23 0.26
0.41 0.48 0.64 0.64 0.58 0.57 0.56 0.53 0.48 0.48 0.49 0.48 0.52 0.45 0.35 0.26 0.31 0.30 0.31 0.30 0.31 0.33 0.31 0.33 0.36 0.41 0.45 0.36 0.25 0.20 0.20 0.20 0.22 0.24 0.25 0.27 0.21 0.15 0.12 0.11 0.12 0.14 0.18 0.19 0.18 0.16 0.24
0.42 0.43 0.60 0.66 0.62 0.56 0.57 0.55 0.51 0.47 0.47 0.44 0.47 0.53 0.41 0.28 0.25 0.34 0.30 0.32 0.26 0.27 0.27 0.31 0.39 0.43 0.39 0.27 0.20 0.13 0.10 0.14 0.13 0.16 0.25 0.25 0.25 0.18 0.14 0.10 0.07 0.14 0.22 0.26 0.24 0.11 0.24
0.43 0.43 0.52 0.66 0.67 0.58 0.55 0.57 0.52 0.49 0.46 0.44 0.44 0.51 0.40 0.29 0.34 0.36 0.28 0.27 0.33 0.29 0.24 0.28 0.30 0.30 0.35 0.23 0.17 0.15 0.14 0.20 0.13 0.12 0.13 0.14 0.16 0.13 0.14 0.12 0.13 0.21 0.25 0.27 0.12 0.12 0.24
0.49 0.40 0.44 0.61 0.66 0.66 0.55 0.55 0.55 0.52 0.49 0.45 0.43 0.50 0.40 0.30 0.31 0.36 0.39 0.35 0.36 0.34 0.23 0.30 0.26 0.30 0.25 0.19 0.18 0.19 0.16 0.18 0.17 0.17 0.16 0.14 0.13 0.13 0.15 0.12 0.08 0.26 0.26 0.16 0.18 0.25 0.25
0.64 0.41 0.40 0.55 0.65 0.66 0.63 0.57 0.55 0.54 0.50 0.49 0.37 0.48 0.48 0.35 0.32 0.40 0.40 0.43 0.42 0.42 0.36 0.35 0.30 0.31 0.32 0.25 0.25 0.25 0.19 0.21 0.19 0.12 0.21 0.14 0.17 0.14 0.17 0.14 0.22 0.28 0.24 0.27 0.28 0.25 0.26
Wind_Speed
39 37 38 35 35 37 39 39 38 40 37 37 36 35 33 31 31 29 30 33 32 33 35 33 32 34 29 25 25 21 21 22 21 21 20 20 20 20 20 21 22 24 25 26 28 29 31
39 38 36 36 36 38 39 36 34 34 32 32 32 32 30 28 27 27 27 26 31 31 32 34 32 32 29 26 24 24 23 21 20 20 20 20 20 20 20 21 22 24 26 29 29 32 33
39 41 38 37 37 37 35 33 33 30 26 24 24 23 24 25 25 24 25 26 27 32 31 33 35 29 26 24 24 23 22 21 20 19 19 19 19 19 20 22 23 25 28 29 30 31 33
40 42 40 39 37 36 34 32 29 25 23 21 18 16 18 20 22 22 22 23 25 27 31 32 34 29 22 23 23 21 21 19 18 17 17 17 17 18 20 22 23 24 25 26 27 28 30
42 43 40 39 37 36 34 31 27 24 22 20 18 14 14 13 16 18 18 16 18 22 29 30 30 25 22 21 21 20 19 18 17 16 15 16 17 18 19 19 21 22 24 25 27 25 28
44 43 40 39 38 37 35 32 29 25 22 18 15 12 10 9 10 12 11 8 15 21 24 25 26 21 22 23 20 19 17 16 15 14 14 14 15 16 16 15 17 18 19 21 24 24 26
43 43 42 41 40 39 37 34 35 25 20 15 11 8 7 7 5 6 11 12 16 18 19 22 21 17 21 21 20 17 16 13 12 12 12 12 12 14 14 14 14 15 18 23 24 26 26
44 44 45 42 41 41 39 33 28 17 18 11 7 5 4 3 4 10 10 12 16 21 20 17 18 16 17 21 17 15 15 12 11 10 10 8 11 11 11 12 15 17 20 22 20 15 17
45 45 44 42 43 43 42 37 26 15 8 5 4 3 3 2 7 10 12 13 18 20 19 15 18 17 15 17 14 15 13 10 9 9 9 9 9 7 9 12 14 14 14 15 13 14 14
47 46 44 43 45 47 47 35 19 7 1 5 2 2 2 9 10 9 13 15 21 18 17 15 15 15 15 15 12 12 11 8 7 9 8 9 9 9 11 12 9 10 7 10 12 9 9
48 47 43 42 46 50 47 33 20 10 8 9 7 6 9 12 12 12 15 17 19 14 14 14 14 15 16 11 15 10 9 7 7 6 5 6 6 7 8 6 5 6 6 11 14 11 9
48 46 41 41 45 47 48 40 35 29 20 15 13 13 17 15 15 17 20 16 14 13 12 13 14 16 14 13 10 11 9 6 6 5 5 8 7 5 4 5 7 9 12 14 9 8 6
48 46 39 38 41 44 43 41 38 34 28 24 22 20 20 19 20 19 18 12 13 12 13 15 16 16 13 11 10 9 7 7 6 3 2 3 5 3 4 4 4 5 7 6 4 2 3
46 45 38 35 36 39 40 37 35 34 31 30 28 26 24 22 19 18 12 11 14 13 14 17 17 15 12 11 9 8 8 6 5 3 2 5 2 3 2 3 3 3 2 2 3 2 3
45 44 38 33 32 33 34 35 34 33 31 29 27 25 23 20 18 12 13 15 16 16 17 18 16 13 11 10 10 8 7 5 4 9 6 4 2 2 2 1 2 3 2 3 2 3 4
42 43 39 34 30 28 28 29 30 30 29 27 24 22 20 16 11 13 15 17 17 16 17 13 11 11 10 9 8 9 7 7 8 8 6 4 2 3 4 4 2 3 4 3 2 3 4
40 41 38 34 30 27 25 24 23 22 23 22 21 21 19 18 18 20 17 16 16 14 13 10 10 11 11 11 10 8 8 9 8 7 6 5 4 3 5 5 6 6 6 3 4 4 4
37 38 37 34 31 28 26 24 23 21 19 18 19 19 19 20 21 19 18 16 15 13 12 12 13 13 12 11 9 9 9 7 8 7 6 5 5 4 4 6 6 7 7 5 6 5 7
34 34 35 33 30 28 28 27 25 26 26 23 21 20 21 19 19 18 17 17 17 16 14 13 13 12 11 11 12 10 8 7 8 6 5 5 5 5 6 7 8 8 9 6 5 7 7
30 31 31 31 29 27 27 28 27 26 26 24 23 22 22 22 22 21 20 19 18 16 15 13 12 12 13 12 10 10 9 8 8 6 6 6 6 7 6 4 5 7 10 9 6 8 7
26 27 27 26 27 26 24 25 26 25 25 24 22 20 20 19 20 20 19 17 16 15 14 14 14 14 12 12 10 10 8 7 7 5 6 5 4 4 3 2 3 4 6 8 7 4 4
22 23 23 22 22 23 22 22 23 23 23 22 22 20 20 18 17 18 17 17 16 15 14 14 14 11 11 11 9 7 6 7 5 4 4 3 1 1 1 3 4 4 5 3 4 4 5
17 19 18 18 18 19 19 19 20 20 20 20 20 20 20 19 18 18 17 15 14 13 13 13 10 10 9 8 5 4 3 2 1 2 1 1 0 1 2 3 3 3 2 4 4 5 5
15 14 15 14 14 15 16 16 17 17 18 18 17 17 18 16 17 16 16 16 15 14 12 11 11 10 8 6 5 4 3 1 1 3 3 4 4 4 2 4 4 1 2 2 2 1 1
13 11 12 10 10 11 12 12 12 13 13 14 14 14 14 14 13 13 13 13 12 11 11 9 9 7 7 6 6 5 4 3 3 3 3 3 4 3 3 2 3 1 1 1 1 3 2
12 10 9 8 7 7 8 9 8 7 7 8 10 10 11 11 9 9 9 9 9 9 8 7 7 7 7 6 6 5 4 3 4 4 3 3 3 2 2 2 1 1 0 0 1 5 2
12 10 8 7 5 5 5 6 7 4 3 4 5 6 7 7 7 6 6 6 6 6 5 5 6 6 7 6 5 4 3 3 3 3 3 3 3 1 2 3 5 4 2 2 1 4 2
13 11 9 8 6 5 5 5 5 4 0 0 1 2 2 2 2 2 2 3 4 4 5 5 5 5 6 5 4 3 3 3 4 3 3 2 1 2 2 3 5 1 1 2 5 5 5
13 12 10 9 8 7 6 6 5 5 3 3 3 2 2 1 2 2 3 3 2 2 3 4 3 4 3 4 4 4 4 4 3 5 4 4 2 3 3 4 6 6 6 7 6 6 7
Wind_Direction
336 335 328 320 321 317 316 312 308 304 294 286 282 276 271 265 260 257 256 249 247 242 233 232 230 224 225 234 237 233 224 226 233 236 240 244 249 253 256 261 266 265 270 274 277 278 277
341 340 334 327 324 322 322 317 315 314 304 292 284 275 266 262 259 255 254 253 244 239 233 227 221 217 226 232 231 226 225 230 233 237 242 247 251 254 259 264 267 272 273 275 276 278 276
342 340 336 332 330 328 327 325 322 320 315 306 295 281 265 262 258 256 256 252 248 236 228 219 212 216 222 227 224 220 224 227 232 237 243 249 253 257 262 268 272 275 278 279 276 277 277
343 341 338 336 333 332 331 327 324 323 320 317 308 293 274 266 258 257 257 254 248 230 218 210 204 214 221 221 211 215 220 224 230 236 240 248 255 259 265 269 277 278 278 281 281 281 278
344 342 341 339 336 334 332 328 324 322 319 318 308 297 280 271 262 256 257 251 231 209 202 200 198 205 206 199 206 214 217 221 225 235 244 250 258 262 269 273 280 280 279 281 285 281 278
346 345 343 341 338 335 331 325 318 311 313 313 316 297 287 276 271 249 231 204 180 169 173 178 189 198 213 208 208 208 214 215 226 232 245 256 263 266 270 271 273 275 281 282 279 286 284
349 349 347 343 341 337 332 325 317 292 301 302 307 312 298 268 267 211 187 176 161 167 175 188 187 201 190 195 195 202 205 211 222 234 245 255 262 258 257 260 275 280 284 285 285 286 284
354 351 349 347 346 342 337 332 336 313 294 278 287 304 317 285 205 167 161 162 180 160 147 164 166 170 170 176 186 197 199 209 218 231 235 253 251 255 262 270 275 281 285 290 293 292 295
357 354 354 353 351 349 342 333 323 316 309 247 273 286 322 183 158 158 156 149 148 166 161 149 155 157 163 173 184 186 192 202 210 221 228 232 251 273 269 276 277 279 278 292 294 310 308
359 358 358 359 358 356 351 348 348 328 23 168 120 75 43 141 141 140 146 153 144 142 146 154 154 151 151 153 158 173 182 192 204 215 223 244 258 266 272 274 260 280 284 290 297 314 315
3 3 4 6 7 8 10 18 28 58 92 103 95 81 109 128 128 128 136 134 153 147 138 146 148 158 154 155 156 169 177 183 192 199 210 248 265 274 270 245 238 272 292 298 301 299 319
7 8 10 13 16 21 28 42 58 74 89 85 82 93 116 116 116 127 129 124 139 145 132 145 148 148 148 152 150 154 165 177 186 208 227 249 255 249 228 258 251 284 297 293 291 292 293
11 12 16 19 25 31 37 51 59 69 74 76 82 94 106 110 116 115 118 114 124 125 140 142 145 149 146 146 145 151 163 168 173 170 256 237 182 182 205 276 282 289 310 313 326 339 289
14 16 20 24 29 36 44 53 60 65 71 76 80 90 96 106 108 110 108 110 111 124 129 139 142 142 143 149 148 153 152 152 179 200 177 136 106 170 183 267 316 321 358 354 353 14 14
17 19 24 27 32 39 47 54 61 67 72 74 79 83 92 99 104 96 104 97 121 125 130 130 132 130 133 137 141 144 145 144 164 157 146 133 127 104 143 88 28 30 20 32 21 58 59
19 22 27 30 34 39 48 56 62 65 68 69 74 80 83 83 83 102 106 104 111 121 127 130 128 134 138 145 133 136 143 138 133 138 133 117 99 117 62 74 41 13 1 44 26 20 47
20 23 28 32 37 43 49 54 57 60 60 63 68 76 76 73 91 97 104 111 115 119 120 120 124 127 129 132 133 130 135 131 131 125 119 109 107 73 74 85 64 62 61 74 55 65 57
20 24 29 35 41 48 52 53 57 56 55 61 74 75 69 79 92 93 99 107 111 114 114 113 115 113 119 124 125 126 131 134 134 122 118 113 105 91 101 85 61 65 50 70 82 67 69
20 24 30 37 44 52 56 57 62 62 62 72 78 81 78 81 88 88 94 101 105 103 102 102 105 105 112 121 116 123 119 120 127 119 108 101 91 73 57 67 62 55 38 51 77 71 76
20 25 31 38 50 55 58 60 63 64 66 75 78 82 79 80 87 92 92 93 98 96 98 96 96 104 109 110 114 113 107 101 112 109 105 97 91 99 107 99 60 38 31 41 81 78 88
19 25 31 42 49 54 59 60 60 62 68 76 75 79 81 82 82 87 92 93 90 88 88 87 95 95 103 103 104 99 97 92 100 91 101 99 98 89 77 55 50 41 21 26 62 76 89
15 22 30 41 46 51 58 59 58 64 68 73 80 81 81 83 85 85 83 85 87 88 89 89 96 90 92 103 109 107 100 91 94 79 94 80 103 70 351 0 356 341 356 14 49 72 90
9 18 26 36 42 49 55 58 59 64 69 76 78 77 81 79 81 85 83 84 83 91 93 95 95 95 88 94 110 117 124 102 87 56 33 56 83 2 289 341 334 13 70 73 80 87 96
359 9 19 29 38 46 52 56 58 62 70 78 78 80 80 80 81 82 80 82 78 80 88 85 84 87 81 67 84 94 103 111 81 74 85 94 87 82 82 38 58 108 106 104 92 60 73
348 355 7 19 32 39 44 50 57 63 71 73 73 77 79 82 83 79 74 77 76 77 79 80 75 70 53 56 61 53 57 58 74 68 62 72 83 59 75 47 318 349 184 167 153 316 245
333 336 346 0 9 22 29 35 44 55 69 73 72 74 74 82 77 85 79 73 74 69 65 70 61 50 52 60 61 61 62 50 30 8 68 50 41 54 14 355 288 337 212 286 326 312 241
327 319 318 332 340 348 2 13 19 33 71 81 78 73 73 75 71 81 77 76 70 65 63 48 34 36 41 47 51 52 32 38 22 4 2 353 348 289 293 291 300 279 241 278 335 290 272
326 310 298 303 299 312 322 338 355 5 278 261 121 57 55 87 36 87 77 62 50 46 47 24 28 28 28 43 46 32 30 8 358 320 324 321 346 300 345 307 312 233 316 252 285 299 296
313 310 289 284 284 279 292 304 317 324 309 252 262 276 298 287 305 293 273 278 289 327 1 4 9 6 14 29 11 10 338 339 332 325 321 314 265 299 252 277 295 265 283 283 287 288 287